RYR30JT LEZL-LEPA

Flight info

Callsign RYR30JT
Flight time N/A
Altitude 38000
Route MAR DCT MGA DCT RIXUR DCT UNTOS DCT ROLAS DCT TOSGA DCT RESTU DCT ALT DCT SUMMO DCT MITOS DCT BRUNO DCT RUXET
Aircraft A320/M-SDE3FGHIRWY/LB1

Departure

Time 2026-04-22 13:19
Airport Seville Airport (LEZL)

Arrival

Time N/A
Airport Palma de Mallorca Airport (LEPA)
Time Latitude Longitude Altitude Speed Heading
2026-04-22 12:50 37.42186 -5.89984 94 ft 0 kts 314°
2026-04-22 13:10 37.42181 -5.89977 95 ft 2 kts 314°
2026-04-22 13:10 37.42169 -5.89962 94 ft 2 kts 314°
2026-04-22 13:11 37.42157 -5.89947 92 ft 2 kts 314°
2026-04-22 13:11 37.42143 -5.89934 93 ft 3 kts 349°
2026-04-22 13:11 37.42125 -5.89934 93 ft 3 kts 25°
2026-04-22 13:11 37.42115 -5.89940 93 ft 0 kts 47°
2026-04-22 13:13 37.42133 -5.89916 94 ft 8 kts 47°
2026-04-22 13:13 37.42175 -5.89867 94 ft 10 kts 43°
2026-04-22 13:14 37.42224 -5.89807 94 ft 9 kts 45°
2026-04-22 13:14 37.42263 -5.89730 95 ft 16 kts 92°
2026-04-22 13:14 37.42188 -5.89622 95 ft 16 kts 134°
2026-04-22 13:14 37.42113 -5.89526 99 ft 14 kts 134°
2026-04-22 13:15 37.42046 -5.89439 98 ft 16 kts 133°
2026-04-22 13:15 37.41982 -5.89296 99 ft 20 kts 92°
2026-04-22 13:15 37.41983 -5.89100 101 ft 24 kts 90°
2026-04-22 13:15 37.41984 -5.88885 102 ft 25 kts 90°
2026-04-22 13:16 37.41985 -5.88659 104 ft 26 kts 90°
2026-04-22 13:16 37.41986 -5.88424 105 ft 28 kts 89°
2026-04-22 13:16 37.41987 -5.88178 106 ft 29 kts 90°
2026-04-22 13:16 37.41987 -5.87975 107 ft 23 kts 89°
2026-04-22 13:17 37.41988 -5.87773 108 ft 24 kts 89°
2026-04-22 13:17 37.41988 -5.87564 110 ft 23 kts 97°
2026-04-22 13:17 37.41897 -5.87427 115 ft 21 kts 174°
2026-04-22 13:17 37.41803 -5.87534 115 ft 18 kts 256°
2026-04-22 13:18 37.41800 -5.87610 114 ft 5 kts 270°
2026-04-22 13:18 37.41800 -5.87683 113 ft 24 kts 270°
2026-04-22 13:18 37.41796 -5.88239 106 ft 99 kts 270°
2026-04-22 13:18 37.41793 -5.89365 102 ft 156 kts 270°
2026-04-22 13:19 37.41811 -5.90764 660 ft 159 kts 275°
2026-04-22 13:19 37.41991 -5.92143 1323 ft 161 kts 280°
2026-04-22 13:19 37.42227 -5.93596 1782 ft 181 kts 281°
2026-04-22 13:19 37.42499 -5.95218 2163 ft 203 kts 281°
2026-04-22 13:20 37.42809 -5.97089 2522 ft 229 kts 281°
2026-04-22 13:20 37.43143 -5.99122 2993 ft 253 kts 281°
2026-04-22 13:20 37.43400 -6.01363 3742 ft 263 kts 268°
2026-04-22 13:20 37.43023 -6.03613 4704 ft 265 kts 245°
2026-04-22 13:21 37.41982 -6.05512 5737 ft 264 kts 223°
2026-04-22 13:21 37.40456 -6.06753 6837 ft 262 kts 202°
2026-04-22 13:21 37.38660 -6.07180 7829 ft 268 kts 181°
2026-04-22 13:21 37.36805 -6.06785 8767 ft 274 kts 169°
2026-04-22 13:22 37.34967 -6.06091 9695 ft 278 kts 166°
2026-04-22 13:22 37.33142 -6.05222 10531 ft 283 kts 162°
2026-04-22 13:22 37.31336 -6.04170 11281 ft 293 kts 158°
2026-04-22 13:22 37.29508 -6.02800 11550 ft 320 kts 149°
2026-04-22 13:23 37.27745 -6.00928 11943 ft 341 kts 139°
2026-04-22 13:23 37.26186 -5.98627 12648 ft 351 kts 130°
2026-04-22 13:23 37.24902 -5.95979 13417 ft 359 kts 120°
2026-04-22 13:23 37.23960 -5.93042 14135 ft 367 kts 110°
2026-04-22 13:24 37.23338 -5.89910 14781 ft 373 kts 106°
2026-04-22 13:24 37.22753 -5.86716 15407 ft 378 kts 106°
2026-04-22 13:24 37.22169 -5.83480 16034 ft 383 kts 106°
2026-04-22 13:24 37.21583 -5.80203 16659 ft 387 kts 105°
2026-04-22 13:25 37.20990 -5.76883 17263 ft 392 kts 105°
2026-04-22 13:25 37.20386 -5.73529 17880 ft 397 kts 105°
2026-04-22 13:25 37.19979 -5.71285 18282 ft 400 kts 105°
2026-04-22 13:26 37.18455 -5.63055 19568 ft 410 kts 105°
2026-04-22 13:26 37.17880 -5.59541 20123 ft 415 kts 97°
2026-04-22 13:26 37.17965 -5.55914 20677 ft 420 kts 81°
2026-04-22 13:26 37.18483 -5.52292 21255 ft 423 kts 80°
2026-04-22 13:27 37.19029 -5.48650 21824 ft 427 kts 79°
2026-04-22 13:27 37.19591 -5.44983 22390 ft 430 kts 79°
2026-04-22 13:27 37.20161 -5.41290 22951 ft 433 kts 79°
2026-04-22 13:27 37.20729 -5.37573 23481 ft 436 kts 79°
2026-04-22 13:28 37.21297 -5.33825 23932 ft 439 kts 79°
2026-04-22 13:28 37.21862 -5.30052 24364 ft 442 kts 79°
2026-04-22 13:28 37.22426 -5.26254 24787 ft 444 kts 79°
2026-04-22 13:28 37.22993 -5.22433 25197 ft 447 kts 79°
2026-04-22 13:29 37.23566 -5.18586 25596 ft 450 kts 79°
2026-04-22 13:29 37.24140 -5.14721 25991 ft 452 kts 79°
2026-04-22 13:29 37.24715 -5.10833 26381 ft 455 kts 79°
2026-04-22 13:29 37.25292 -5.06922 26762 ft 457 kts 79°
2026-04-22 13:30 37.25872 -5.02985 27144 ft 460 kts 79°
2026-04-22 13:30 37.26255 -5.00365 27393 ft 461 kts 79°
2026-04-22 13:31 37.28158 -4.87294 28590 ft 470 kts 78°
2026-04-22 13:31 37.28748 -4.83244 28929 ft 472 kts 78°
2026-04-22 13:31 37.29338 -4.79185 29263 ft 474 kts 78°
2026-04-22 13:31 37.29931 -4.75095 29588 ft 477 kts 78°
2026-04-22 13:32 37.30523 -4.70992 29910 ft 479 kts 78°
2026-04-22 13:32 37.31117 -4.66865 30196 ft 481 kts 78°
2026-04-22 13:32 37.31716 -4.62721 30449 ft 483 kts 78°
2026-04-22 13:32 37.32315 -4.58564 30697 ft 485 kts 78°
2026-04-22 13:33 37.32905 -4.54445 30941 ft 486 kts 78°
2026-04-22 13:33 37.33501 -4.50261 31178 ft 488 kts 78°
2026-04-22 13:33 37.34096 -4.46063 31487 ft 487 kts 78°
2026-04-22 13:33 37.34685 -4.41884 31822 ft 486 kts 78°
2026-04-22 13:34 37.35272 -4.37699 32156 ft 485 kts 78°
2026-04-22 13:34 37.35857 -4.33529 32494 ft 484 kts 78°
2026-04-22 13:34 37.36443 -4.29367 32841 ft 483 kts 78°
2026-04-22 13:34 37.37027 -4.25207 33177 ft 482 kts 78°
2026-04-22 13:35 37.37609 -4.21060 33529 ft 481 kts 78°
2026-04-22 13:35 37.38188 -4.16924 33869 ft 480 kts 78°
2026-04-22 13:35 37.38763 -4.12791 34176 ft 480 kts 78°
2026-04-22 13:35 37.39141 -4.10056 34368 ft 479 kts 78°
2026-04-22 13:36 37.41107 -3.95730 35432 ft 474 kts 79°
2026-04-22 13:36 37.41665 -3.91645 35712 ft 473 kts 79°
2026-04-22 13:37 37.42212 -3.87627 35982 ft 472 kts 79°
2026-04-22 13:37 37.42767 -3.83566 36244 ft 471 kts 79°
2026-04-22 13:37 37.43321 -3.79512 36504 ft 470 kts 79°
2026-04-22 13:37 37.43874 -3.75467 36752 ft 469 kts 79°
2026-04-22 13:38 37.44423 -3.71430 36983 ft 468 kts 79°
2026-04-22 13:38 37.45509 -3.63372 37443 ft 466 kts 79°
2026-04-22 13:38 37.46048 -3.59355 37672 ft 465 kts 79°
2026-04-22 13:39 37.46584 -3.55341 37884 ft 464 kts 79°
2026-04-22 13:39 37.47118 -3.51335 37991 ft 464 kts 79°
2026-04-22 13:39 37.48183 -3.43331 37995 ft 463 kts 79°
2026-04-22 13:40 37.49246 -3.35346 37998 ft 462 kts 79°
2026-04-22 13:40 37.50297 -3.27361 37994 ft 462 kts 79°
2026-04-22 13:41 37.51338 -3.19385 38001 ft 461 kts 79°
2026-04-22 13:41 37.52199 -3.12757 38000 ft 461 kts 79°
2026-04-22 13:42 37.53227 -3.04785 38007 ft 461 kts 79°
2026-04-22 13:42 37.54254 -2.96807 38009 ft 461 kts 79°
2026-04-22 13:43 37.55287 -2.88829 38017 ft 461 kts 79°
2026-04-22 13:43 37.56306 -2.80857 38018 ft 461 kts 79°
2026-04-22 13:44 37.57310 -2.72884 38019 ft 460 kts 79°
2026-04-22 13:44 37.58314 -2.64912 38017 ft 460 kts 79°
2026-04-22 13:45 37.58982 -2.59579 38019 ft 460 kts 79°